Regional Weather Roundup
Issued by NWS Cleveland, OH

Home | Current Version | Previous Version | Graphics & Text | Print | Product List | Glossary On
Versions: 1 2 3 4 5 6 7 8 9 10 11 12 13 14 15 16 17 18 19 20 21 22 23 24 25 26 27 28 29 30 31 32 33 34 35 36 37 38 39 40 41 42 43 44 45 46 47 48 49 50
000
ASUS41 KCLE 060200
RWRCLE
OHIO REGIONAL WEATHER ROUNDUP
NATIONAL WEATHER SERVICE WILMINGTON, OH
900 PM EST MON DEC 05 2016

NOTE: "FAIR" INDICATES FEW OR NO CLOUDS BELOW 12,000 FEET WITH NO
SIGNIFICANT WEATHER AND/OR OBSTRUCTIONS TO VISIBILITY.

OHZ001>008-015>018-024>027-034-035-043-044-060300-
   NORTHWEST OHIO

CITY           SKY/WX    TMP DP  RH WIND       PRES   REMARKS
DEFIANCE       FAIR      30  25  81 E3        30.05S HAZE
FINDLAY        FAIR      31  26  82 E6        30.03F WCI  25
TOLEDO EXPRESS FAIR      28  28 100 CALM      30.05F
TOLEDO EXEC    FAIR      31  28  89 E5        30.07F WCI  26
LIMA           FAIR      30  28  92 E7        30.01F WCI  23
$$

OHZ009>014-019>023-028>033-038-089-060300-
   NORTHEAST OHIO

CITY           SKY/WX    TMP DP  RH WIND       PRES   REMARKS
CLE-HOPKINS    FAIR      33  27  78 SE5       30.11S WCI  29
CLE-LAKEFRONT  FAIR      36  28  73 SE3       30.09S
CUY CO. ARPT   CLEAR     30  28  93 S7        30.09S WCI  23
LORAIN-ELYRIA  FAIR      29  25  85 SE3       30.08F
ASHTABULA      FAIR      28  26  92 CALM      30.10F
AKRON-CANTON   FAIR      34  27  75 SE6       30.07F WCI  29
WOOSTER        NOT AVBL
MANSFIELD      FAIR      29  26  89 E6        30.04F WCI  23
YOUNGSTOWN     FAIR      29  27  92 S3        30.09S
$$

OHZ042-051>053-060>062-070>072-077>081-060300-
  SOUTHWEST OHIO

CITY           SKY/WX    TMP DP  RH WIND       PRES   REMARKS
CINC-COVINGTON MOCLDY    39  33  79 E13       29.95F
CINC-LUNKEN    FAIR      37  33  85 NE7       29.99F
HAMILTON       FAIR      35  30  82 E6        30.00F
DAYTON         NOT AVBL
WRIGHT-PAT AFB FAIR      33  31  92 E8        30.00F WCI  26
DAYTON GENERAL FAIR      35  29  78 E10       29.98F WCI  27
WILMINGTON     FAIR      34  30  85 NE10      29.99F WCI  26
$$

OHZ036-037-039>041-045>050-054>059-063>069-073>076-082>088-060300-
  CENTRAL AND SOUTHEAST OHIO

CITY           SKY/WX    TMP DP  RH WIND       PRES   REMARKS
COLUMBUS       MOCLDY    33  30  88 E5        30.03F WCI  29
OSU AIRPORT    FAIR      31  28  89 E6        30.03F WCI  25
BOLTON FIELD   NOT AVBL
RICKENBACK AFB NOT AVBL
NEWARK         FAIR      31  27  85 CALM      30.04F
MARION         FAIR      28  24  85 E3        30.04F
LANCASTER      FAIR      32  28  85 E5        30.04F WCI  27
ZANESVILLE     FAIR      34  28  79 E3        30.06F
NEW PHILLY     FAIR      29  28  96 CALM      30.08F
$$




USA.gov is the U.S. government's official web portal to all federal, state and local government web resources and services.